Time,TemperatureF,DewpointF,PressureIn,WindDirection,WindDirectionDegrees,WindSpeedMPH,WindSpeedGustMPH,Humidity,HourlyPrecipIn,Conditions,Clouds,dailyrainin,SoftwareType,DateUTC
2013-08-31 00:00:00,66.3,61.5,30.02,ESE,104,0.0,0.0,85,0.00,,,0.00,VWS V14.00,2013-08-31 04:00:00,
2013-08-31 00:01:00,70.5,64.8,29.82,SSE,166,0.0,1.7,82,0.00,,,0.00,VWS V14.00,2013-08-31 04:01:00,
2013-08-31 00:03:00,71.2,64.6,29.84,South,191,4.2,5.2,80,0.00,,,0.00,VWS V14.00,2013-08-31 04:03:00,
2013-08-31 00:04:00,70.4,64.7,29.82,SSE,166,0.0,1.7,82,0.00,,,0.00,VWS V14.00,2013-08-31 04:04:00,
2013-08-31 00:06:00,71.1,64.6,29.83,South,181,0.0,4.3,80,0.00,,,0.00,VWS V14.00,2013-08-31 04:06:00,
2013-08-31 00:07:00,70.3,64.7,29.82,SE,143,0.0,3.4,82,0.00,,,0.00,VWS V14.00,2013-08-31 04:07:00,
2013-08-31 00:10:00,70.2,64.7,29.82,SE,143,0.0,3.4,83,0.00,,,0.00,VWS V14.00,2013-08-31 04:10:00,
2013-08-31 00:12:00,71.0,64.7,29.83,South,181,4.3,4.7,80,0.00,,,0.00,VWS V14.00,2013-08-31 04:12:00,
2013-08-31 00:13:00,70.3,64.9,29.82,SE,143,0.0,3.4,83,0.00,,,0.00,VWS V14.00,2013-08-31 04:13:00,
2013-08-31 00:15:00,70.9,64.6,29.83,SSE,166,0.0,3.1,81,0.00,,,0.00,VWS V14.00,2013-08-31 04:15:00,
2013-08-31 00:16:00,70.3,64.9,29.82,SE,143,0.0,3.4,83,0.00,,,0.00,VWS V14.00,2013-08-31 04:16:00,
2013-08-31 00:19:00,70.2,64.9,29.82,SE,143,0.0,3.4,83,0.00,,,0.00,VWS V14.00,2013-08-31 04:19:00,
2013-08-31 00:20:00,66.1,61.4,30.02,ESE,104,0.0,0.0,85,0.00,,,0.00,VWS V14.00,2013-08-31 04:20:00,
2013-08-31 00:21:00,70.7,64.6,29.83,South,170,0.0,4.3,81,0.00,,,0.00,VWS V14.00,2013-08-31 04:21:00,
2013-08-31 00:22:00,70.3,65.0,29.82,SE,143,0.0,3.4,83,0.00,,,0.00,VWS V14.00,2013-08-31 04:22:00,
2013-08-31 00:25:00,70.1,64.8,29.82,SE,143,0.0,3.4,83,0.00,,,0.00,VWS V14.00,2013-08-31 04:25:00,
2013-08-31 00:27:00,70.6,64.6,29.83,South,186,3.2,4.2,81,0.00,,,0.00,VWS V14.00,2013-08-31 04:27:00,
2013-08-31 00:28:00,70.0,64.7,29.84,SE,143,0.0,3.4,83,0.00,,,0.00,VWS V14.00,2013-08-31 04:28:00,
2013-08-31 00:30:00,66.1,61.6,30.02,ESE,104,0.0,0.0,85,0.00,,,0.00,VWS V14.00,2013-08-31 04:30:00,
2013-08-31 00:31:00,70.0,64.7,29.84,SE,143,0.0,3.4,83,0.00,,,0.00,VWS V14.00,2013-08-31 04:31:00,
2013-08-31 00:33:00,70.5,64.6,29.83,SSE,150,0.0,7.3,82,0.00,,,0.00,VWS V14.00,2013-08-31 04:33:00,
2013-08-31 00:34:00,69.9,64.7,29.84,NNW,335,0.0,4.7,84,0.00,,,0.00,VWS V14.00,2013-08-31 04:34:00,
2013-08-31 00:37:00,70.0,64.9,29.85,NNW,340,0.0,6.2,84,0.00,,,0.00,VWS V14.00,2013-08-31 04:37:00,
2013-08-31 00:39:00,70.5,64.8,29.83,SE,131,0.0,4.8,82,0.00,,,0.00,VWS V14.00,2013-08-31 04:39:00,
2013-08-31 00:40:00,69.9,65.0,29.84,WNW,297,0.0,6.6,84,0.00,,,0.00,VWS V14.00,2013-08-31 04:40:00,
2013-08-31 00:43:00,69.7,65.0,29.85,WNW,297,0.0,6.6,85,0.00,,,0.00,VWS V14.00,2013-08-31 04:43:00,
2013-08-31 00:45:00,70.3,64.7,29.82,SSE,166,0.0,1.7,82,0.00,,,0.00,VWS V14.00,2013-08-31 04:45:00,
2013-08-31 00:47:00,69.7,65.2,29.85,WNW,297,0.0,6.6,86,0.00,,,0.00,VWS V14.00,2013-08-31 04:47:00,
2013-08-31 00:50:00,69.5,65.2,29.84,WNW,297,0.0,6.6,86,0.00,,,0.00,VWS V14.00,2013-08-31 04:50:00,
2013-08-31 00:51:00,70.5,64.8,29.82,SSE,166,0.0,1.7,82,0.00,,,0.00,VWS V14.00,2013-08-31 04:51:00,
2013-08-31 00:53:00,69.5,65.4,29.85,WNW,297,0.0,6.6,87,0.00,,,0.00,VWS V14.00,2013-08-31 04:53:00,
2013-08-31 00:56:00,69.4,65.4,29.84,WNW,297,0.0,6.6,87,0.00,,,0.00,VWS V14.00,2013-08-31 04:56:00,
2013-08-31 00:59:00,69.3,65.4,29.84,WNW,297,0.0,6.6,87,0.00,,,0.00,VWS V14.00,2013-08-31 04:59:00,
2013-08-31 01:02:00,69.4,65.5,29.85,WNW,297,0.0,6.6,87,0.00,,,0.00,VWS V14.00,2013-08-31 05:02:00,
2013-08-31 01:05:00,69.3,65.5,29.85,WNW,297,0.0,6.6,88,0.00,,,0.00,VWS V14.00,2013-08-31 05:05:00,
2013-08-31 01:08:00,69.2,65.4,29.85,WNW,297,0.0,6.6,88,0.00,,,0.00,VWS V14.00,2013-08-31 05:08:00,
2013-08-31 01:11:00,69.1,65.4,29.85,WNW,297,0.0,6.6,88,0.00,,,0.00,VWS V14.00,2013-08-31 05:11:00,
2013-08-31 01:14:00,69.2,65.6,29.85,WNW,297,0.0,6.6,88,0.00,,,0.00,VWS V14.00,2013-08-31 05:14:00,
2013-08-31 01:17:00,69.2,65.6,29.84,WNW,297,0.0,6.6,88,0.00,,,0.00,VWS V14.00,2013-08-31 05:17:00,
2013-08-31 01:20:00,69.3,65.7,29.85,WNW,297,0.0,6.6,88,0.00,,,0.00,VWS V14.00,2013-08-31 05:20:00,
2013-08-31 01:23:00,69.2,65.6,29.84,WNW,297,0.0,6.6,88,0.00,,,0.00,VWS V14.00,2013-08-31 05:23:00,
2013-08-31 01:26:00,69.4,65.7,29.84,WNW,297,0.0,6.6,88,0.00,,,0.00,VWS V14.00,2013-08-31 05:26:00,
2013-08-31 01:29:00,69.4,65.6,29.84,WNW,297,0.0,6.6,88,0.00,,,0.00,VWS V14.00,2013-08-31 05:29:00,
2013-08-31 01:32:00,69.2,65.3,29.84,WNW,297,0.0,6.6,87,0.00,,,0.00,VWS V14.00,2013-08-31 05:32:00,
2013-08-31 01:35:00,69.1,65.3,29.84,WNW,297,0.0,6.6,88,0.00,,,0.00,VWS V14.00,2013-08-31 05:35:00,
2013-08-31 01:38:00,69.2,65.4,29.84,WNW,297,0.0,6.6,88,0.00,,,0.00,VWS V14.00,2013-08-31 05:38:00,
2013-08-31 01:41:00,69.0,65.3,29.84,WNW,297,0.0,6.6,88,0.00,,,0.00,VWS V14.00,2013-08-31 05:41:00,
2013-08-31 01:44:00,69.0,65.3,29.84,WNW,297,0.0,6.6,88,0.00,,,0.00,VWS V14.00,2013-08-31 05:44:00,
2013-08-31 01:47:00,68.9,65.2,29.84,WNW,297,0.0,6.6,88,0.00,,,0.00,VWS V14.00,2013-08-31 05:47:00,
2013-08-31 01:50:00,68.8,65.1,29.84,WNW,297,0.0,6.6,88,0.00,,,0.00,VWS V14.00,2013-08-31 05:50:00,
2013-08-31 01:53:00,68.8,65.1,29.84,WNW,297,0.0,6.6,88,0.00,,,0.00,VWS V14.00,2013-08-31 05:53:00,
2013-08-31 01:56:00,68.7,65.1,29.83,WNW,297,0.0,6.6,88,0.00,,,0.00,VWS V14.00,2013-08-31 05:56:00,
2013-08-31 01:59:00,68.7,65.1,29.83,WNW,297,0.0,6.6,88,0.00,,,0.00,VWS V14.00,2013-08-31 05:59:00,
2013-08-31 02:02:00,68.5,64.9,29.83,WNW,297,0.0,6.6,88,0.00,,,0.00,VWS V14.00,2013-08-31 06:02:00,
2013-08-31 02:05:00,68.5,64.9,29.83,WNW,297,0.0,6.6,88,0.00,,,0.00,VWS V14.00,2013-08-31 06:05:00,
2013-08-31 02:08:00,68.4,64.8,29.83,WNW,297,0.0,6.6,88,0.00,,,0.00,VWS V14.00,2013-08-31 06:08:00,
2013-08-31 02:11:00,68.4,64.8,29.83,WNW,297,0.0,6.6,88,0.00,,,0.00,VWS V14.00,2013-08-31 06:11:00,
2013-08-31 02:14:00,68.4,64.9,29.83,WNW,297,0.0,6.6,89,0.00,,,0.00,VWS V14.00,2013-08-31 06:14:00,
2013-08-31 02:17:00,68.5,65.0,29.82,WNW,297,0.0,6.6,89,0.00,,,0.00,VWS V14.00,2013-08-31 06:17:00,
2013-08-31 02:20:00,68.4,64.9,29.82,WNW,297,0.0,6.6,89,0.00,,,0.00,VWS V14.00,2013-08-31 06:20:00,
2013-08-31 02:23:00,68.5,65.0,29.82,WNW,297,0.0,6.6,89,0.00,,,0.00,VWS V14.00,2013-08-31 06:23:00,
2013-08-31 02:26:00,68.5,65.0,29.82,WNW,297,0.0,6.6,89,0.00,,,0.00,VWS V14.00,2013-08-31 06:26:00,
2013-08-31 02:29:00,68.4,65.0,29.82,WNW,297,0.0,6.6,89,0.00,,,0.00,VWS V14.00,2013-08-31 06:29:00,
2013-08-31 02:32:00,68.4,65.0,29.83,WNW,297,0.0,6.6,89,0.00,,,0.00,VWS V14.00,2013-08-31 06:32:00,
2013-08-31 02:41:00,68.3,64.9,29.82,WNW,297,0.0,6.6,89,0.00,,,0.00,VWS V14.00,2013-08-31 06:41:00,
2013-08-31 02:47:00,68.2,64.9,29.82,WNW,297,0.0,6.6,89,0.00,,,0.00,VWS V14.00,2013-08-31 06:47:00,
2013-08-31 02:53:00,68.1,64.9,29.83,WNW,297,0.0,6.6,90,0.00,,,0.00,VWS V14.00,2013-08-31 06:53:00,
2013-08-31 03:05:00,68.0,65.1,29.84,WNW,297,0.0,6.6,90,0.00,,,0.00,VWS V14.00,2013-08-31 07:05:00,
2013-08-31 03:08:00,67.8,64.9,29.84,WNW,297,0.0,6.6,90,0.00,,,0.00,VWS V14.00,2013-08-31 07:08:00,
2013-08-31 03:14:00,67.9,65.2,29.83,WNW,297,0.0,6.6,91,0.00,,,0.00,VWS V14.00,2013-08-31 07:14:00,
2013-08-31 03:20:00,68.1,65.4,29.83,WNW,297,0.0,6.6,91,0.00,,,0.00,VWS V14.00,2013-08-31 07:20:00,
2013-08-31 03:23:00,68.1,65.3,29.83,WNW,297,0.0,6.6,91,0.00,,,0.00,VWS V14.00,2013-08-31 07:23:00,
2013-08-31 03:26:00,68.3,65.4,29.83,WNW,297,0.0,6.6,91,0.00,,,0.00,VWS V14.00,2013-08-31 07:26:00,
2013-08-31 03:28:00,68.4,65.0,29.82,WNW,297,0.0,6.6,89,0.00,,,0.00,VWS V14.00,2013-08-31 07:28:00,
2013-08-31 03:29:00,68.3,65.4,29.83,WNW,297,0.0,6.6,90,0.00,,,0.00,VWS V14.00,2013-08-31 07:29:00,
2013-08-31 03:35:00,68.1,65.2,29.82,WNW,297,0.0,6.6,90,0.00,,,0.00,VWS V14.00,2013-08-31 07:35:00,
2013-08-31 03:37:00,68.2,64.9,29.82,WNW,297,0.0,6.6,89,0.00,,,0.00,VWS V14.00,2013-08-31 07:37:00,
2013-08-31 03:38:00,68.1,65.2,29.82,WNW,297,0.0,6.6,90,0.00,,,0.00,VWS V14.00,2013-08-31 07:38:00,
2013-08-31 03:41:00,68.1,65.2,29.82,WNW,297,0.0,6.6,90,0.00,,,0.00,VWS V14.00,2013-08-31 07:41:00,
2013-08-31 03:43:00,68.3,65.1,29.83,WNW,297,0.0,6.6,89,0.00,,,0.00,VWS V14.00,2013-08-31 07:43:00,
2013-08-31 03:44:00,68.2,65.3,29.83,WNW,297,0.0,6.6,90,0.00,,,0.00,VWS V14.00,2013-08-31 07:44:00,
2013-08-31 03:49:00,68.2,65.1,29.83,WNW,297,0.0,6.6,90,0.00,,,0.00,VWS V14.00,2013-08-31 07:49:00,
2013-08-31 03:53:00,68.0,65.0,29.83,WNW,297,0.0,6.6,90,0.00,,,0.00,VWS V14.00,2013-08-31 07:53:00,
2013-08-31 03:55:00,68.1,65.1,29.84,WNW,297,0.0,6.6,90,0.00,,,0.00,VWS V14.00,2013-08-31 07:55:00,
2013-08-31 03:59:00,67.9,65.0,29.83,WNW,297,0.0,6.6,90,0.00,,,0.00,VWS V14.00,2013-08-31 07:59:00,
2013-08-31 04:02:00,67.9,65.0,29.84,WNW,297,0.0,6.6,90,0.00,,,0.00,VWS V14.00,2013-08-31 08:02:00,
2013-08-31 04:04:00,68.0,65.2,29.84,WNW,297,0.0,6.6,91,0.00,,,0.00,VWS V14.00,2013-08-31 08:04:00,
2013-08-31 04:10:00,68.1,65.4,29.83,WNW,297,0.0,6.6,91,0.00,,,0.00,VWS V14.00,2013-08-31 08:10:00,
2013-08-31 04:11:00,67.7,64.9,29.83,WNW,297,0.0,6.6,91,0.00,,,0.00,VWS V14.00,2013-08-31 08:11:00,
2013-08-31 04:14:00,67.9,65.1,29.83,WNW,297,0.0,6.6,91,0.00,,,0.00,VWS V14.00,2013-08-31 08:14:00,
2013-08-31 04:17:00,67.8,65.0,29.83,WNW,297,0.0,6.6,91,0.00,,,0.00,VWS V14.00,2013-08-31 08:17:00,
2013-08-31 04:23:00,67.7,64.9,29.83,WNW,297,0.0,6.6,91,0.00,,,0.00,VWS V14.00,2013-08-31 08:23:00,
2013-08-31 04:25:00,68.2,65.3,29.83,WNW,297,0.0,6.6,90,0.00,,,0.00,VWS V14.00,2013-08-31 08:25:00,
2013-08-31 04:26:00,67.9,65.1,29.83,WNW,297,0.0,6.6,91,0.00,,,0.00,VWS V14.00,2013-08-31 08:26:00,
2013-08-31 04:29:00,67.8,65.0,29.83,WNW,297,0.0,6.6,91,0.00,,,0.00,VWS V14.00,2013-08-31 08:29:00,
2013-08-31 04:32:00,67.8,65.0,29.83,WNW,297,0.0,6.6,91,0.00,,,0.00,VWS V14.00,2013-08-31 08:32:00,
2013-08-31 04:35:00,67.8,65.0,29.83,WNW,297,0.0,6.6,91,0.00,,,0.00,VWS V14.00,2013-08-31 08:35:00,
2013-08-31 04:40:00,68.2,65.3,29.83,WNW,297,0.0,6.6,90,0.00,,,0.00,VWS V14.00,2013-08-31 08:40:00,
2013-08-31 04:44:00,67.7,64.9,29.83,WNW,297,0.0,6.6,91,0.00,,,0.00,VWS V14.00,2013-08-31 08:44:00,
2013-08-31 04:49:00,67.9,65.0,29.83,WNW,297,0.0,6.6,90,0.00,,,0.00,VWS V14.00,2013-08-31 08:49:00,
2013-08-31 04:53:00,68.0,65.2,29.82,WNW,297,0.0,6.6,91,0.00,,,0.00,VWS V14.00,2013-08-31 08:53:00,
2013-08-31 04:58:00,67.8,65.0,29.83,WNW,297,0.0,6.6,91,0.00,,,0.00,VWS V14.00,2013-08-31 08:58:00,
2013-08-31 05:02:00,67.4,64.7,29.80,ESE,118,2.7,6.6,91,0.00,,,0.00,VWS V14.00,2013-08-31 09:02:00,
2013-08-31 05:13:00,68.0,65.2,29.83,WNW,297,0.0,6.6,91,0.00,,,0.00,VWS V14.00,2013-08-31 09:13:00,
2013-08-31 05:14:00,67.3,64.7,29.82,SSE,148,0.0,6.6,92,0.00,,,0.00,VWS V14.00,2013-08-31 09:14:00,
2013-08-31 05:17:00,67.2,64.7,29.82,SSE,148,0.0,6.6,92,0.00,,,0.00,VWS V14.00,2013-08-31 09:17:00,
2013-08-31 05:31:00,67.6,64.8,29.83,WNW,297,0.0,6.6,91,0.00,,,0.00,VWS V14.00,2013-08-31 09:31:00,
2013-08-31 05:36:00,67.2,64.6,29.83,SSE,148,0.0,6.6,91,0.00,,,0.00,VWS V14.00,2013-08-31 09:36:00,
2013-08-31 05:40:00,67.7,64.9,29.83,WNW,297,0.0,6.6,91,0.00,,,0.00,VWS V14.00,2013-08-31 09:40:00,
2013-08-31 05:50:00,67.8,65.0,29.82,WNW,297,0.0,6.6,91,0.00,,,0.00,VWS V14.00,2013-08-31 09:50:00,
2013-08-31 05:54:00,67.3,64.7,29.83,SSE,148,0.0,6.6,91,0.00,,,0.00,VWS V14.00,2013-08-31 09:54:00,
2013-08-31 05:59:00,67.3,64.6,29.80,SSE,148,0.0,6.6,91,0.00,,,0.00,VWS V14.00,2013-08-31 09:59:00,
2013-08-31 06:00:00,66.9,64.3,29.83,SSE,148,0.0,6.6,91,0.00,,,0.00,VWS V14.00,2013-08-31 10:00:00,
2013-08-31 06:05:00,67.1,64.5,29.82,SSE,148,0.0,6.6,91,0.00,,,0.00,VWS V14.00,2013-08-31 10:05:00,
2013-08-31 06:14:00,67.2,64.7,29.83,SSE,148,0.0,6.6,92,0.00,,,0.00,VWS V14.00,2013-08-31 10:14:00,
2013-08-31 06:15:00,66.8,64.4,29.83,SE,142,0.0,6.6,92,0.00,,,0.00,VWS V14.00,2013-08-31 10:15:00,
2013-08-31 06:20:00,67.3,64.7,29.83,SSE,148,0.0,6.6,92,0.00,,,0.00,VWS V14.00,2013-08-31 10:20:00,
2013-08-31 06:21:00,66.8,64.4,29.83,SE,142,0.0,6.6,92,0.00,,,0.00,VWS V14.00,2013-08-31 10:21:00,
2013-08-31 06:26:00,67.1,64.5,29.83,SSE,148,0.0,6.6,91,0.00,,,0.00,VWS V14.00,2013-08-31 10:26:00,
2013-08-31 06:27:00,66.8,64.4,29.84,SE,142,0.0,6.6,92,0.00,,,0.00,VWS V14.00,2013-08-31 10:27:00,
2013-08-31 06:32:00,67.2,64.6,29.83,SSE,148,0.0,6.6,91,0.00,,,0.00,VWS V14.00,2013-08-31 10:32:00,
2013-08-31 06:38:00,67.2,64.6,29.83,SSE,148,0.0,6.6,91,0.00,,,0.00,VWS V14.00,2013-08-31 10:38:00,
2013-08-31 06:44:00,67.1,64.4,29.83,SSE,148,0.0,6.6,91,0.00,,,0.00,VWS V14.00,2013-08-31 10:44:00,
2013-08-31 06:48:00,66.7,64.5,29.83,SE,142,0.0,6.6,93,0.00,,,0.00,VWS V14.00,2013-08-31 10:48:00,
2013-08-31 06:50:00,67.0,64.3,29.83,SSE,148,0.0,6.6,91,0.00,,,0.00,VWS V14.00,2013-08-31 10:50:00,
2013-08-31 06:56:00,67.0,64.4,29.83,SE,142,0.0,6.6,91,0.00,,,0.00,VWS V14.00,2013-08-31 10:56:00,
2013-08-31 07:02:00,66.9,64.4,29.83,SE,142,0.0,6.6,92,0.00,,,0.00,VWS V14.00,2013-08-31 11:02:00,
2013-08-31 07:06:00,66.8,64.9,29.83,SE,142,0.0,6.6,94,0.00,,,0.00,VWS V14.00,2013-08-31 11:06:00,
2013-08-31 07:11:00,66.8,64.4,29.83,SE,142,0.0,6.6,92,0.00,,,0.00,VWS V14.00,2013-08-31 11:11:00,
2013-08-31 07:15:00,66.7,64.8,29.82,SE,142,0.0,6.6,94,0.00,,,0.00,VWS V14.00,2013-08-31 11:15:00,
2013-08-31 07:17:00,66.8,64.4,29.84,SE,142,0.0,6.6,92,0.00,,,0.00,VWS V14.00,2013-08-31 11:17:00,
2013-08-31 07:21:00,66.8,64.9,29.83,SE,142,0.0,6.6,94,0.00,,,0.00,VWS V14.00,2013-08-31 11:21:00,
2013-08-31 07:23:00,66.7,64.3,29.84,SE,142,0.0,6.6,92,0.00,,,0.00,VWS V14.00,2013-08-31 11:23:00,
2013-08-31 07:29:00,66.6,64.3,29.83,SE,142,0.0,6.6,92,0.00,,,0.00,VWS V14.00,2013-08-31 11:29:00,
2013-08-31 07:33:00,66.6,64.6,29.82,SE,142,0.0,6.6,93,0.00,,,0.00,VWS V14.00,2013-08-31 11:33:00,
2013-08-31 07:35:00,66.4,64.2,29.83,SE,142,0.0,6.6,92,0.00,,,0.00,VWS V14.00,2013-08-31 11:35:00,
2013-08-31 07:44:00,66.6,64.5,29.83,SE,142,0.0,6.6,93,0.00,,,0.00,VWS V14.00,2013-08-31 11:44:00,
2013-08-31 07:50:00,66.5,64.5,29.83,SE,142,0.0,6.6,93,0.00,,,0.00,VWS V14.00,2013-08-31 11:50:00,
2013-08-31 07:56:00,66.6,64.6,29.83,SE,142,0.0,6.6,93,0.00,,,0.00,VWS V14.00,2013-08-31 11:56:00,
2013-08-31 08:02:00,66.8,64.9,29.82,SE,142,0.0,6.6,94,0.00,,,0.00,VWS V14.00,2013-08-31 12:02:00,
2013-08-31 08:03:00,67.3,65.6,29.82,SE,142,0.0,6.6,94,0.00,,,0.00,VWS V14.00,2013-08-31 12:03:00,
2013-08-31 08:11:00,66.8,64.9,29.83,SE,142,0.0,6.6,94,0.00,,,0.00,VWS V14.00,2013-08-31 12:11:00,
2013-08-31 08:12:00,67.4,65.7,29.83,SE,142,0.0,6.6,94,0.00,,,0.00,VWS V14.00,2013-08-31 12:12:00,
2013-08-31 08:17:00,66.8,64.9,29.83,SE,142,0.0,6.6,94,0.00,,,0.00,VWS V14.00,2013-08-31 12:17:00,
2013-08-31 08:23:00,66.7,64.7,29.83,SE,142,0.0,6.6,93,0.00,,,0.00,VWS V14.00,2013-08-31 12:23:00,
2013-08-31 08:27:00,67.8,66.1,29.83,SE,142,0.0,6.6,94,0.00,,,0.00,VWS V14.00,2013-08-31 12:27:00,
2013-08-31 08:29:00,66.8,64.8,29.82,SE,142,0.0,6.6,93,0.00,,,0.00,VWS V14.00,2013-08-31 12:29:00,
2013-08-31 08:35:00,66.7,64.7,29.82,SE,142,0.0,6.6,93,0.00,,,0.00,VWS V14.00,2013-08-31 12:35:00,
2013-08-31 08:41:00,66.8,64.9,29.82,SE,142,0.0,6.6,94,0.00,,,0.00,VWS V14.00,2013-08-31 12:41:00,
2013-08-31 08:47:00,67.0,65.2,29.82,SE,142,0.0,6.6,94,0.00,,,0.00,VWS V14.00,2013-08-31 12:47:00,
2013-08-31 08:48:00,67.9,66.2,29.83,SE,142,0.0,6.6,94,0.00,,,0.00,VWS V14.00,2013-08-31 12:48:00,
2013-08-31 08:51:00,68.1,66.5,29.83,SE,142,0.0,6.6,94,0.00,,,0.00,VWS V14.00,2013-08-31 12:51:00,
2013-08-31 08:53:00,67.0,65.3,29.82,SE,142,0.0,6.6,94,0.00,,,0.00,VWS V14.00,2013-08-31 12:53:00,
2013-08-31 08:59:00,67.3,65.6,29.82,SE,142,0.0,6.6,94,0.00,,,0.00,VWS V14.00,2013-08-31 12:59:00,
2013-08-31 09:08:00,67.4,65.7,29.83,SE,142,0.0,6.6,94,0.00,,,0.00,VWS V14.00,2013-08-31 13:08:00,
2013-08-31 09:14:00,67.4,65.8,29.83,SE,142,0.0,6.6,94,0.00,,,0.00,VWS V14.00,2013-08-31 13:14:00,
2013-08-31 09:21:00,68.6,66.9,29.83,SE,142,0.0,6.6,94,0.00,,,0.00,VWS V14.00,2013-08-31 13:21:00,
2013-08-31 09:23:00,67.8,66.1,29.83,SE,142,0.0,6.6,94,0.00,,,0.00,VWS V14.00,2013-08-31 13:23:00,
2013-08-31 09:29:00,67.7,66.0,29.83,SE,142,0.0,6.6,94,0.00,,,0.00,VWS V14.00,2013-08-31 13:29:00,
2013-08-31 09:35:00,67.9,66.2,29.83,SE,142,0.0,6.6,94,0.00,,,0.00,VWS V14.00,2013-08-31 13:35:00,
2013-08-31 09:42:00,69.0,67.1,29.83,SE,142,0.0,6.6,94,0.00,,,0.00,VWS V14.00,2013-08-31 13:42:00,
2013-08-31 09:45:00,69.0,67.1,29.83,SE,142,0.0,6.6,94,0.00,,,0.00,VWS V14.00,2013-08-31 13:45:00,
2013-08-31 09:47:00,68.1,66.5,29.83,SE,142,0.0,6.6,94,0.00,,,0.00,VWS V14.00,2013-08-31 13:47:00,
2013-08-31 09:51:00,69.0,67.0,29.83,SE,142,0.0,6.6,93,0.00,,,0.00,VWS V14.00,2013-08-31 13:51:00,
2013-08-31 09:53:00,68.4,66.8,29.83,SE,142,0.0,6.6,94,0.00,,,0.00,VWS V14.00,2013-08-31 13:53:00,
2013-08-31 09:59:00,68.3,66.6,29.83,SE,142,0.0,6.6,94,0.00,,,0.00,VWS V14.00,2013-08-31 13:59:00,
2013-08-31 10:05:00,68.4,66.7,29.83,SE,142,0.0,6.6,94,0.00,,,0.00,VWS V14.00,2013-08-31 14:05:00,
2013-08-31 10:11:00,68.4,66.7,29.83,SE,142,0.0,6.6,94,0.00,,,0.00,VWS V14.00,2013-08-31 14:11:00,
2013-08-31 10:17:00,68.6,66.9,29.83,SE,142,0.0,6.6,94,0.00,,,0.00,VWS V14.00,2013-08-31 14:17:00,
2013-08-31 10:23:00,68.8,67.1,29.83,SE,142,0.0,6.6,94,0.00,,,0.00,VWS V14.00,2013-08-31 14:23:00,
2013-08-31 10:29:00,69.2,67.4,29.83,SE,142,0.0,6.6,94,0.00,,,0.00,VWS V14.00,2013-08-31 14:29:00,
2013-08-31 10:33:00,68.9,67.0,29.83,SE,142,0.0,6.6,94,0.00,,,0.00,VWS V14.00,2013-08-31 14:33:00,
2013-08-31 10:36:00,68.8,66.9,29.83,SE,142,0.0,6.6,94,0.00,,,0.00,VWS V14.00,2013-08-31 14:36:00,
2013-08-31 10:41:00,69.0,67.1,29.83,SE,142,0.0,6.6,94,0.00,,,0.00,VWS V14.00,2013-08-31 14:41:00,
2013-08-31 10:45:00,69.1,67.3,29.82,SE,142,0.0,6.6,94,0.00,,,0.00,VWS V14.00,2013-08-31 14:45:00,
2013-08-31 10:47:00,68.8,66.8,29.83,SE,142,0.0,6.6,93,0.00,,,0.00,VWS V14.00,2013-08-31 14:47:00,
2013-08-31 10:53:00,68.9,66.9,29.83,SE,142,0.0,6.6,93,0.00,,,0.00,VWS V14.00,2013-08-31 14:53:00,
2013-08-31 10:59:00,68.9,66.9,29.83,SE,142,0.0,6.6,93,0.00,,,0.00,VWS V14.00,2013-08-31 14:59:00,
2013-08-31 11:05:00,68.8,66.8,29.83,SE,142,0.0,6.6,93,0.00,,,0.00,VWS V14.00,2013-08-31 15:05:00,
2013-08-31 11:11:00,68.6,66.6,29.83,SE,142,0.0,6.6,93,0.00,,,0.00,VWS V14.00,2013-08-31 15:11:00,
2013-08-31 11:13:00,69.4,67.6,29.82,SE,142,0.0,6.6,94,0.00,,,0.00,VWS V14.00,2013-08-31 15:13:00,
2013-08-31 11:18:00,68.6,66.7,29.83,SE,142,0.0,6.6,94,0.00,,,0.00,VWS V14.00,2013-08-31 15:18:00,
2013-08-31 11:24:00,68.8,66.9,29.83,SE,142,0.0,6.6,94,0.00,,,0.00,VWS V14.00,2013-08-31 15:24:00,
2013-08-31 11:33:00,69.0,67.2,29.83,SE,142,0.0,6.6,94,0.00,,,0.00,VWS V14.00,2013-08-31 15:33:00,
2013-08-31 11:34:00,69.5,67.7,29.82,SE,142,0.0,6.6,94,0.00,,,0.00,VWS V14.00,2013-08-31 15:34:00,
2013-08-31 11:42:00,69.1,67.3,29.82,SE,142,0.0,6.6,94,0.00,,,0.00,VWS V14.00,2013-08-31 15:42:00,
2013-08-31 11:48:00,69.4,67.7,29.82,SE,142,0.0,6.6,94,0.00,,,0.00,VWS V14.00,2013-08-31 15:48:00,
2013-08-31 11:52:00,69.9,68.0,29.82,SE,142,0.0,6.6,94,0.00,,,0.00,VWS V14.00,2013-08-31 15:52:00,
2013-08-31 11:54:00,69.4,67.7,29.82,SE,142,0.0,6.6,94,0.00,,,0.00,VWS V14.00,2013-08-31 15:54:00,
2013-08-31 12:00:00,69.4,67.6,29.82,SE,142,0.0,6.6,94,0.00,,,0.00,VWS V14.00,2013-08-31 16:00:00,
2013-08-31 12:04:00,70.1,68.1,29.82,SE,142,0.0,6.6,94,0.00,,,0.00,VWS V14.00,2013-08-31 16:04:00,
2013-08-31 12:07:00,69.9,67.9,29.82,SE,142,0.0,6.6,94,0.00,,,0.00,VWS V14.00,2013-08-31 16:07:00,
2013-08-31 12:09:00,69.4,67.6,29.82,SE,142,0.0,6.6,94,0.00,,,0.00,VWS V14.00,2013-08-31 16:09:00,
2013-08-31 12:15:00,69.5,67.7,29.82,SE,142,0.0,6.6,94,0.00,,,0.00,VWS V14.00,2013-08-31 16:15:00,
2013-08-31 12:19:00,70.0,68.1,29.82,SE,142,0.0,6.6,94,0.00,,,0.00,VWS V14.00,2013-08-31 16:19:00,
2013-08-31 12:21:00,69.9,68.1,29.82,SE,142,0.0,6.6,94,0.00,,,0.00,VWS V14.00,2013-08-31 16:21:00,
2013-08-31 12:30:00,69.7,67.9,29.82,SE,142,0.0,6.6,94,0.00,,,0.00,VWS V14.00,2013-08-31 16:30:00,
2013-08-31 12:36:00,70.0,68.1,29.82,SE,142,0.0,6.6,94,0.00,,,0.00,VWS V14.00,2013-08-31 16:36:00,
2013-08-31 12:42:00,69.9,68.0,29.82,SE,142,0.0,6.6,94,0.00,,,0.00,VWS V14.00,2013-08-31 16:42:00,
2013-08-31 12:48:00,70.1,68.2,29.82,SE,142,0.0,6.6,94,0.00,,,0.00,VWS V14.00,2013-08-31 16:48:00,
2013-08-31 12:54:00,70.0,68.0,29.82,SE,142,0.0,6.6,94,0.00,,,0.00,VWS V14.00,2013-08-31 16:54:00,
2013-08-31 13:03:00,70.0,68.0,29.82,SE,142,0.0,6.6,94,0.00,,,0.00,VWS V14.00,2013-08-31 17:03:00,
2013-08-31 13:09:00,70.1,68.2,29.82,SE,142,0.0,6.6,94,0.00,,,0.00,VWS V14.00,2013-08-31 17:09:00,
2013-08-31 13:10:00,70.7,68.9,29.81,SE,142,0.0,6.6,94,0.00,,,0.00,VWS V14.00,2013-08-31 17:10:00,
2013-08-31 13:15:00,70.0,68.1,29.82,SE,142,0.0,6.6,94,0.00,,,0.00,VWS V14.00,2013-08-31 17:15:00,
2013-08-31 13:21:00,70.1,68.3,29.82,SE,142,0.0,6.6,94,0.00,,,0.00,VWS V14.00,2013-08-31 17:21:00,
2013-08-31 13:27:00,70.2,68.4,29.82,SE,142,0.0,6.6,94,0.00,,,0.00,VWS V14.00,2013-08-31 17:27:00,
2013-08-31 13:33:00,70.1,68.3,29.82,SE,142,0.0,6.6,94,0.00,,,0.00,VWS V14.00,2013-08-31 17:33:00,
2013-08-31 13:39:00,70.3,68.5,29.82,SE,142,0.0,6.6,94,0.00,,,0.00,VWS V14.00,2013-08-31 17:39:00,
2013-08-31 13:43:00,70.5,68.7,29.80,SE,142,0.0,6.6,94,0.00,,,0.00,VWS V14.00,2013-08-31 17:43:00,
2013-08-31 13:45:00,70.2,68.4,29.81,SE,142,0.0,6.6,94,0.00,,,0.00,VWS V14.00,2013-08-31 17:45:00,
2013-08-31 13:51:00,70.4,68.6,29.81,SE,142,0.0,6.6,94,0.00,,,0.00,VWS V14.00,2013-08-31 17:51:00,
2013-08-31 13:55:00,70.8,69.0,29.80,SE,142,0.0,6.6,94,0.00,,,0.00,VWS V14.00,2013-08-31 17:55:00,
2013-08-31 13:57:00,70.5,68.7,29.81,SE,142,0.0,6.6,94,0.00,,,0.00,VWS V14.00,2013-08-31 17:57:00,
2013-08-31 14:06:00,70.7,68.8,29.81,SE,142,0.0,6.6,94,0.00,,,0.00,VWS V14.00,2013-08-31 18:06:00,
2013-08-31 14:12:00,70.6,68.7,29.81,SE,142,0.0,6.6,94,0.00,,,0.00,VWS V14.00,2013-08-31 18:12:00,
2013-08-31 14:18:00,70.6,68.7,29.80,SE,142,0.0,6.6,94,0.00,,,0.00,VWS V14.00,2013-08-31 18:18:00,
2013-08-31 14:22:00,71.2,69.4,29.81,SE,142,0.0,6.6,94,0.00,,,0.00,VWS V14.00,2013-08-31 18:22:00,
2013-08-31 14:24:00,70.8,68.9,29.80,SE,142,0.0,6.6,94,0.00,,,0.00,VWS V14.00,2013-08-31 18:24:00,
2013-08-31 14:25:00,71.1,69.3,29.81,SE,142,0.0,6.6,94,0.00,,,0.00,VWS V14.00,2013-08-31 18:25:00,
2013-08-31 14:30:00,70.7,68.8,29.80,SE,142,0.0,6.6,94,0.00,,,0.00,VWS V14.00,2013-08-31 18:30:00,
2013-08-31 14:39:00,70.7,68.9,29.80,SE,142,0.0,6.6,94,0.00,,,0.00,VWS V14.00,2013-08-31 18:39:00,
2013-08-31 14:45:00,70.9,69.1,29.80,SE,142,0.0,6.6,94,0.00,,,0.00,VWS V14.00,2013-08-31 18:45:00,
2013-08-31 14:51:00,70.8,69.0,29.80,SE,142,0.0,6.6,94,0.00,,,0.00,VWS V14.00,2013-08-31 18:51:00,
2013-08-31 14:57:00,70.9,69.1,29.81,SE,142,0.0,6.6,94,0.00,,,0.00,VWS V14.00,2013-08-31 18:57:00,
2013-08-31 15:03:00,70.7,68.9,29.80,SE,142,0.0,6.6,94,0.00,,,0.00,VWS V14.00,2013-08-31 19:03:00,
2013-08-31 15:09:00,70.9,69.1,29.81,SE,142,0.0,6.6,94,0.00,,,0.00,VWS V14.00,2013-08-31 19:09:00,
2013-08-31 15:21:00,71.0,69.2,29.80,SE,142,0.0,6.6,94,0.00,,,0.00,VWS V14.00,2013-08-31 19:21:00,
2013-08-31 15:22:00,73.0,70.8,29.79,SE,142,0.0,6.6,93,0.00,,,0.00,VWS V14.00,2013-08-31 19:22:00,
2013-08-31 15:27:00,71.2,69.4,29.80,SE,142,0.0,6.6,94,0.00,,,0.00,VWS V14.00,2013-08-31 19:27:00,
2013-08-31 15:33:00,71.6,70.0,29.80,SE,142,0.0,6.6,95,0.00,,,0.00,VWS V14.00,2013-08-31 19:33:00,
2013-08-31 15:39:00,71.9,70.3,29.80,SE,142,0.0,6.6,95,0.00,,,0.00,VWS V14.00,2013-08-31 19:39:00,
2013-08-31 15:45:00,72.2,70.6,29.80,SE,142,0.0,6.6,95,0.00,,,0.00,VWS V14.00,2013-08-31 19:45:00,
2013-08-31 15:51:00,72.3,70.5,29.80,SE,142,0.0,6.6,94,0.00,,,0.00,VWS V14.00,2013-08-31 19:51:00,
2013-08-31 15:57:00,72.5,70.6,29.79,SE,142,0.0,6.6,94,0.00,,,0.00,VWS V14.00,2013-08-31 19:57:00,
2013-08-31 16:03:00,72.7,70.7,29.79,SE,142,0.0,6.6,93,0.00,,,0.00,VWS V14.00,2013-08-31 20:03:00,
2013-08-31 16:09:00,72.8,70.8,29.79,SE,142,0.0,6.6,93,0.00,,,0.00,VWS V14.00,2013-08-31 20:09:00,
2013-08-31 16:19:00,73.0,70.7,29.79,SE,142,0.0,6.6,93,0.00,,,0.00,VWS V14.00,2013-08-31 20:19:00,
2013-08-31 16:25:00,73.1,70.7,29.79,SE,142,0.0,6.6,92,0.00,,,0.00,VWS V14.00,2013-08-31 20:25:00,
2013-08-31 16:31:00,73.3,70.8,29.79,SE,142,0.0,6.6,92,0.00,,,0.00,VWS V14.00,2013-08-31 20:31:00,
2013-08-31 16:37:00,73.3,70.9,29.79,SE,142,0.0,6.6,92,0.00,,,0.00,VWS V14.00,2013-08-31 20:37:00,
2013-08-31 16:43:00,73.7,71.5,29.79,SE,142,0.0,6.6,93,0.00,,,0.00,VWS V14.00,2013-08-31 20:43:00,
2013-08-31 16:49:00,74.1,71.7,29.79,SE,142,0.0,6.6,92,0.00,,,0.00,VWS V14.00,2013-08-31 20:49:00,
2013-08-31 16:55:00,74.1,71.4,29.79,SE,142,0.0,6.6,91,0.00,,,0.00,VWS V14.00,2013-08-31 20:55:00,
2013-08-31 17:01:00,74.2,71.5,29.79,SE,142,0.0,6.6,91,0.00,,,0.00,VWS V14.00,2013-08-31 21:01:00,
2013-08-31 17:07:00,74.1,71.4,29.79,SE,142,0.0,6.6,91,0.00,,,0.00,VWS V14.00,2013-08-31 21:07:00,
2013-08-31 17:13:00,73.8,71.1,29.79,SE,142,0.0,6.6,91,0.00,,,0.00,VWS V14.00,2013-08-31 21:13:00,
2013-08-31 17:19:00,73.7,71.0,29.79,SE,142,0.0,6.6,91,0.00,,,0.00,VWS V14.00,2013-08-31 21:19:00,
2013-08-31 17:25:00,73.6,71.0,29.79,SE,142,0.0,6.6,92,0.00,,,0.00,VWS V14.00,2013-08-31 21:25:00,
2013-08-31 17:26:00,72.8,70.4,29.80,SE,142,0.0,6.6,92,0.00,,,0.00,VWS V14.00,2013-08-31 21:26:00,
2013-08-31 17:31:00,73.5,70.9,29.79,SE,142,0.0,6.6,92,0.00,,,0.00,VWS V14.00,2013-08-31 21:31:00,
2013-08-31 17:37:00,73.2,70.6,29.79,SE,142,0.0,6.6,92,0.00,,,0.00,VWS V14.00,2013-08-31 21:37:00,
2013-08-31 17:43:00,73.2,70.7,29.79,SE,142,0.0,6.6,92,0.00,,,0.00,VWS V14.00,2013-08-31 21:43:00,
2013-08-31 17:49:00,73.2,70.7,29.79,SE,142,0.0,6.6,92,0.00,,,0.00,VWS V14.00,2013-08-31 21:49:00,
2013-08-31 17:55:00,73.1,70.6,29.79,SE,142,0.0,6.6,92,0.00,,,0.00,VWS V14.00,2013-08-31 21:55:00,
2013-08-31 17:59:00,72.0,69.7,29.79,SE,142,0.0,6.6,93,0.00,,,0.00,VWS V14.00,2013-08-31 21:59:00,
2013-08-31 18:01:00,73.2,70.7,29.79,SE,142,0.0,6.6,92,0.00,,,0.00,VWS V14.00,2013-08-31 22:01:00,
2013-08-31 18:07:00,72.9,70.4,29.79,SE,142,0.0,6.6,92,0.00,,,0.00,VWS V14.00,2013-08-31 22:07:00,
2013-08-31 18:13:00,72.9,70.4,29.80,SE,142,0.0,6.6,92,0.00,,,0.00,VWS V14.00,2013-08-31 22:13:00,
2013-08-31 18:22:00,72.6,70.2,29.80,SE,142,0.0,6.6,92,0.00,,,0.00,VWS V14.00,2013-08-31 22:22:00,
2013-08-31 18:28:00,72.5,70.2,29.80,SE,142,0.0,6.6,92,0.00,,,0.00,VWS V14.00,2013-08-31 22:28:00,
2013-08-31 18:34:00,72.4,70.1,29.80,SE,142,0.0,6.6,92,0.00,,,0.00,VWS V14.00,2013-08-31 22:34:00,
2013-08-31 18:35:00,71.7,69.6,29.80,SE,142,0.0,6.6,93,0.00,,,0.00,VWS V14.00,2013-08-31 22:35:00,
2013-08-31 18:40:00,72.3,69.9,29.80,SE,142,0.0,6.6,92,0.00,,,0.00,VWS V14.00,2013-08-31 22:40:00,
2013-08-31 18:46:00,72.2,69.9,29.79,SE,142,0.0,6.6,92,0.00,,,0.00,VWS V14.00,2013-08-31 22:46:00,
2013-08-31 18:47:00,71.8,69.8,29.80,SE,142,0.0,6.6,93,0.00,,,0.00,VWS V14.00,2013-08-31 22:47:00,
2013-08-31 18:55:00,72.0,69.7,29.80,SE,142,0.0,6.6,93,0.00,,,0.00,VWS V14.00,2013-08-31 22:55:00,
2013-08-31 19:01:00,71.9,69.7,29.80,SE,142,0.0,6.6,93,0.00,,,0.00,VWS V14.00,2013-08-31 23:01:00,
2013-08-31 19:07:00,71.8,69.6,29.80,SE,142,0.0,6.6,93,0.00,,,0.00,VWS V14.00,2013-08-31 23:07:00,
2013-08-31 19:13:00,71.9,69.8,29.80,SE,142,0.0,6.6,93,0.00,,,0.00,VWS V14.00,2013-08-31 23:13:00,
2013-08-31 19:19:00,71.9,69.8,29.80,SE,142,0.0,6.6,93,0.00,,,0.00,VWS V14.00,2013-08-31 23:19:00,
2013-08-31 19:25:00,71.7,69.6,29.80,SE,142,0.0,6.6,93,0.00,,,0.00,VWS V14.00,2013-08-31 23:25:00,
2013-08-31 19:31:00,71.7,69.7,29.80,SE,142,0.0,6.6,93,0.00,,,0.00,VWS V14.00,2013-08-31 23:31:00,
2013-08-31 19:37:00,71.7,69.7,29.80,SE,142,0.0,6.6,93,0.00,,,0.00,VWS V14.00,2013-08-31 23:37:00,
2013-08-31 19:43:00,71.6,69.6,29.80,SE,142,0.0,6.6,94,0.00,,,0.00,VWS V14.00,2013-08-31 23:43:00,
2013-08-31 19:49:00,71.7,69.7,29.80,SE,142,0.0,6.6,93,0.00,,,0.00,VWS V14.00,2013-08-31 23:49:00,
2013-08-31 19:55:00,71.8,69.8,29.80,SE,142,0.0,6.6,93,0.00,,,0.00,VWS V14.00,2013-08-31 23:55:00,
2013-08-31 20:01:00,71.7,69.7,29.80,SE,142,0.0,6.6,93,0.00,,,0.00,VWS V14.00,2013-09-01 00:01:00,
2013-08-31 20:07:00,71.8,69.7,29.79,SE,142,0.0,6.6,93,0.00,,,0.00,VWS V14.00,2013-09-01 00:07:00,
2013-08-31 20:13:00,71.8,69.7,29.80,SE,142,0.0,6.6,93,0.00,,,0.00,VWS V14.00,2013-09-01 00:13:00,
2013-08-31 20:19:00,71.6,69.5,29.79,SE,142,0.0,6.6,93,0.00,,,0.00,VWS V14.00,2013-09-01 00:19:00,
2013-08-31 20:25:00,71.6,69.5,29.80,SE,142,0.0,6.6,93,0.00,,,0.00,VWS V14.00,2013-09-01 00:25:00,
2013-08-31 20:31:00,71.8,69.7,29.80,SE,142,0.0,6.6,93,0.00,,,0.00,VWS V14.00,2013-09-01 00:31:00,
2013-08-31 20:37:00,71.6,69.5,29.81,SE,142,0.0,6.6,93,0.00,,,0.00,VWS V14.00,2013-09-01 00:37:00,
2013-08-31 20:44:00,71.7,69.6,29.82,SE,142,0.0,6.6,93,0.00,,,0.00,VWS V14.00,2013-09-01 00:44:00,
2013-08-31 20:50:00,71.7,69.6,29.82,SE,142,0.0,6.6,93,0.00,,,0.00,VWS V14.00,2013-09-01 00:50:00,
2013-08-31 20:56:00,71.8,69.7,29.81,SE,142,0.0,6.6,93,0.00,,,0.00,VWS V14.00,2013-09-01 00:56:00,
2013-08-31 21:02:00,71.7,69.6,29.82,SE,142,0.0,6.6,93,0.00,,,0.00,VWS V14.00,2013-09-01 01:02:00,
2013-08-31 21:08:00,71.8,69.7,29.82,SE,142,0.0,6.6,93,0.00,,,0.00,VWS V14.00,2013-09-01 01:08:00,
2013-08-31 21:14:00,71.9,69.8,29.82,SE,142,0.0,6.6,93,0.00,,,0.00,VWS V14.00,2013-09-01 01:14:00,
2013-08-31 21:20:00,71.8,69.6,29.83,SE,142,0.0,6.6,93,0.00,,,0.00,VWS V14.00,2013-09-01 01:20:00,
2013-08-31 21:26:00,71.7,69.6,29.83,SE,142,0.0,6.6,93,0.00,,,0.00,VWS V14.00,2013-09-01 01:26:00,
2013-08-31 21:32:00,71.7,69.6,29.83,SE,142,0.0,6.6,93,0.00,,,0.00,VWS V14.00,2013-09-01 01:32:00,
2013-08-31 21:38:00,71.6,69.4,29.83,SE,142,0.0,6.6,93,0.00,,,0.00,VWS V14.00,2013-09-01 01:38:00,
2013-08-31 21:44:00,71.5,69.3,29.83,SE,142,0.0,6.6,93,0.00,,,0.00,VWS V14.00,2013-09-01 01:44:00,
2013-08-31 21:50:00,71.2,69.0,29.83,SE,142,0.0,6.6,93,0.00,,,0.00,VWS V14.00,2013-09-01 01:50:00,
2013-08-31 21:56:00,71.0,68.8,29.83,SE,142,0.0,6.6,93,0.00,,,0.00,VWS V14.00,2013-09-01 01:56:00,
2013-08-31 22:02:00,70.8,68.7,29.83,SE,142,0.0,6.6,93,0.00,,,0.00,VWS V14.00,2013-09-01 02:02:00,
2013-08-31 22:08:00,70.6,68.4,29.83,SE,142,0.0,6.6,93,0.00,,,0.00,VWS V14.00,2013-09-01 02:08:00,
2013-08-31 22:14:00,70.5,68.4,29.83,SE,142,0.0,6.6,93,0.00,,,0.00,VWS V14.00,2013-09-01 02:14:00,
2013-08-31 22:20:00,70.8,68.7,29.83,SE,142,0.0,6.6,93,0.00,,,0.00,VWS V14.00,2013-09-01 02:20:00,
2013-08-31 22:26:00,70.6,68.5,29.83,SE,142,0.0,6.6,93,0.00,,,0.00,VWS V14.00,2013-09-01 02:26:00,
2013-08-31 22:32:00,70.6,68.5,29.83,SE,142,0.0,6.6,93,0.00,,,0.00,VWS V14.00,2013-09-01 02:32:00,
2013-08-31 22:38:00,70.5,68.4,29.83,SE,142,0.0,6.6,93,0.00,,,0.00,VWS V14.00,2013-09-01 02:38:00,
2013-08-31 22:44:00,70.5,68.4,29.83,SE,142,0.0,6.6,93,0.00,,,0.00,VWS V14.00,2013-09-01 02:44:00,
2013-08-31 22:50:00,70.6,68.5,29.83,SE,142,0.0,6.6,93,0.00,,,0.00,VWS V14.00,2013-09-01 02:50:00,
2013-08-31 22:56:00,70.5,68.4,29.83,SE,142,0.0,6.6,93,0.00,,,0.00,VWS V14.00,2013-09-01 02:56:00,
2013-08-31 23:02:00,70.5,68.4,29.83,SE,142,0.0,6.6,93,0.00,,,0.00,VWS V14.00,2013-09-01 03:02:00,
2013-08-31 23:08:00,70.4,68.3,29.84,SE,142,0.0,6.6,93,0.00,,,0.00,VWS V14.00,2013-09-01 03:08:00,
2013-08-31 23:14:00,70.2,68.2,29.84,SE,142,0.0,6.6,93,0.00,,,0.00,VWS V14.00,2013-09-01 03:14:00,
2013-08-31 23:20:00,70.0,68.1,29.83,SE,142,0.0,6.6,94,0.00,,,0.00,VWS V14.00,2013-09-01 03:20:00,
2013-08-31 23:26:00,70.0,68.1,29.84,SE,142,0.0,6.6,94,0.00,,,0.00,VWS V14.00,2013-09-01 03:26:00,
2013-08-31 23:32:00,69.9,68.1,29.84,SE,142,0.0,6.6,94,0.00,,,0.00,VWS V14.00,2013-09-01 03:32:00,
2013-08-31 23:38:00,69.8,68.1,29.84,SE,142,0.0,0.0,94,0.00,,,0.00,VWS V14.00,2013-09-01 03:38:00,
2013-08-31 23:40:00,71.9,64.5,29.84,South,187,0.0,7.6,78,0.00,,,0.00,VWS V14.00,2013-09-01 03:40:00,
2013-08-31 23:44:00,69.8,68.2,29.84,SE,142,0.0,0.0,94,0.00,,,0.00,VWS V14.00,2013-09-01 03:44:00,
2013-08-31 23:50:00,69.7,68.1,29.84,SE,142,0.0,0.0,95,0.00,,,0.00,VWS V14.00,2013-09-01 03:50:00,
2013-08-31 23:56:00,69.7,68.2,29.84,SE,142,0.0,0.0,95,0.00,,,0.00,VWS V14.00,2013-09-01 03:56:00,